Lewistown, MT

5:27 AM MDT on June 27, 2017 (GMT -0600)
Lewistown Municipal

Weather History for KLWT - January, 2014

Change the Weather History Date:

Thursday, January 23, 2014

  Actual Average Record
Temperature  
Mean Temperature 26 °F 24 °F  
Max Temperature 41 °F 35 °F 64 °F (2005)
Min Temperature 10 °F 14 °F -38 °F (1929)
Degree Days  
Heating Degree Days 39 41  
Month to date heating degree days 858 955  
Since 1 July heating degree days 4251 4377  
Cooling Degree Days 0 0  
Month to date cooling degree days 0 0  
Year to date cooling degree days 0 0  
Moisture  
Dew Point 16 °F    
Average Humidity 68    
Maximum Humidity 100    
Minimum Humidity 35    
Precipitation  
Precipitation 0.00 in 0.02 in 0.28 in (1914)
Month to date precipitation 0.54 0.43  
Year to date precipitation 0.54 0.43  
Snow  
Snow 0.00 in - - ()
Snow Depth 0.00 in    
Sea Level Pressure  
Sea Level Pressure 30.41 in    
Wind  
Wind Speed 7 mph (SSW)    
Max Wind Speed 21 mph    
Max Gust Speed 30 mph    
Visibility 10 miles    
Events      
T = Trace of Precipitation, MM = Missing Value Source: NWS Daily Summary

Daily Weather History Graph

Daily Weather History Graph

Search for Another Location

Airport or City:

Trip Planner

Search our weather history database for the weather conditions in past years. The results will help you decide how hot, cold, wet, or windy it might be!

Date:

Astronomy

Jan. 23, 2014 Rise Set
Actual Time 7:52 AM MST 5:07 PM MST
Civil Twilight 7:19 AM MST 5:40 PM MST
Nautical Twilight 6:42 AM MST 6:17 PM MST
Astronomical Twilight 6:06 AM MST 6:54 PM MST
Moon 12:10 AM MST (1/23) 10:59 AM MST (1/23)
Length of Visible Light 10h 21m
Length of Day
9h 14m
Waning Gibbous, 54% of the Moon is Illuminated
Jan 23
Waning Gibbous
Jan 23
Last Quarter
Jan 30
New
Feb 6
First Quarter
Feb 14
Full

Hourly Weather History & Observations

Time (MST) Temp. Windchill Dew Point Humidity Pressure Visibility Wind Dir Wind Speed Gust Speed Precip Events Conditions
12:54 AM 21.0 °F 12.4 °F 18.0 °F 88% 30.53 in 10.0 mi SW 6.9 mph - N/A   Mostly Cloudy
1:05 AM 19.9 °F 12.1 °F 18.0 °F 92% 30.38 in 10.0 mi SW 5.8 mph - N/A   Scattered Clouds
1:18 AM 19.0 °F 13.9 °F 16.0 °F 88% 30.38 in 10.0 mi SSW 3.5 mph - N/A   Mostly Cloudy
1:54 AM 21.0 °F 16.2 °F 18.0 °F 88% 30.52 in 10.0 mi SSW 3.5 mph - N/A   Overcast
2:54 AM 17.1 °F 11.7 °F 14.0 °F 88% 30.53 in 10.0 mi SSE 3.5 mph - N/A   Scattered Clouds
3:54 AM 15.1 °F 7.7 °F 12.0 °F 88% 30.53 in 10.0 mi SSE 4.6 mph - N/A   Clear
4:54 AM 14.0 °F 8.2 °F 10.9 °F 88% 30.54 in 10.0 mi SE 3.5 mph - N/A   Clear
5:54 AM 10.9 °F 1.4 °F 9.0 °F 92% 30.55 in 10.0 mi SE 5.8 mph - N/A   Clear
6:54 AM 10.0 °F -0.9 °F 6.1 °F 84% 30.53 in 10.0 mi SE 6.9 mph - N/A   Clear
7:54 AM 12.0 °F 2.7 °F 8.1 °F 84% 30.51 in 10.0 mi ESE 5.8 mph - N/A   Clear
8:54 AM 16.0 °F 8.8 °F 10.9 °F 81% 30.49 in 10.0 mi SE 4.6 mph - N/A   Clear
9:54 AM 23.0 °F 17.0 °F 12.9 °F 65% 30.44 in 10.0 mi SE 4.6 mph - N/A   Clear
10:54 AM 30.0 °F 26.5 °F 10.0 °F 43% 30.41 in 10.0 mi ESE 3.5 mph - N/A   Clear
11:54 AM 35.1 °F - 10.0 °F 35% 30.38 in 10.0 mi Calm Calm - N/A   Clear
12:54 PM 39.0 °F 33.4 °F 15.1 °F 38% 30.34 in 10.0 mi West 8.1 mph - N/A   Clear
1:54 PM 39.9 °F 33.4 °F 15.1 °F 36% 30.32 in 10.0 mi West 10.4 mph - N/A   Clear
2:54 PM 39.0 °F 32.3 °F 17.1 °F 41% 30.30 in 10.0 mi West 10.4 mph - N/A   Clear
3:54 PM 37.0 °F 34.5 °F 19.0 °F 48% 30.32 in 10.0 mi West 3.5 mph - N/A   Clear
4:54 PM 35.1 °F 27.4 °F 19.0 °F 52% 30.32 in 10.0 mi WSW 10.4 mph - N/A   Clear
5:54 PM 33.1 °F 26.1 °F 19.0 °F 56% 30.35 in 10.0 mi SW 8.1 mph - N/A   Clear
6:54 PM 35.1 °F 27.4 °F 21.0 °F 57% 30.35 in 10.0 mi WSW 10.4 mph - N/A   Clear
7:54 PM 35.1 °F 25.5 °F 24.1 °F 64% 30.35 in 10.0 mi West 15.0 mph - N/A   Clear
8:54 PM 36.0 °F 28.5 °F 25.0 °F 64% 30.34 in 10.0 mi WSW 10.4 mph - N/A   Overcast
9:54 PM 37.9 °F 31.5 °F 25.0 °F 60% 30.32 in 10.0 mi West 9.2 mph 19.6 mph N/A   Mostly Cloudy
10:54 PM 39.0 °F 30.6 °F 25.0 °F 57% 30.31 in 10.0 mi WNW 15.0 mph 21.9 mph N/A   Overcast
11:54 PM 37.0 °F 30.4 °F 26.1 °F 65% 30.30 in 10.0 mi WSW 9.2 mph - N/A   Overcast